Location: Olmeneta
(45.2333°N, 10.0167°E)
Time: 15:17:51
(UTC+00:00)

Cosmos 2278 Rocket - Pass Details

Date: 03 March 2021
Orbit: 841 x 845 km, 71.0° (Epoch: 11 April)

Event Time Altitude Azimuth Distance (km) Brightness Sun altitude
Rises 20:24:45 0° 332° (NNW) 3,414 6.1 -34.0°
Reaches altitude 10° 20:27:13 10° 330° (NNW) 2,474 5.2 -34.4°
Enters shadow 20:30:48 40° 320° (NW) 1,231 3.3 -35.0°
